When you browse on this site, cookies collect data to enhance your experience and personalize the content and advertising you see.
Visit our Privacy Policy to learn more. By continuing to use the site, you agree to this use of cookies and data.
  • In Romania
  • List of Countries
  • For 7 days
  • Water Temperature
  • Satellite Maps
  • Weather Map
  • Weather Widgets
  • user-avatar
    Login

    Hourly Weather Oslo

    Today, 26 May, Sunday

    Time Temperature Precipitation Wind Pressure Humidity
    00:00 +9°C° 0 mm 1 mps 741 mmHg 88%
    01:00 +8°C° 0 mm 1 mps 740 mmHg 87%
    02:00 +7°C° 0 mm 2 mps 740 mmHg 87%
    03:00 +7°C° 0 mm 2 mps 739 mmHg 86%
    04:00 +7°C° 0 mm 2 mps 739 mmHg 86%
    05:00 +7°C° 0 mm 3 mps 739 mmHg 81%
    06:00 +7°C° 0 mm 4 mps 739 mmHg 77%
    07:00 +8°C° 0 mm 5 mps 739 mmHg 73%
    08:00 +8°C° 0 mm 5 mps 739 mmHg 66%
    09:00 +9°C° 0 mm 5 mps 740 mmHg 59%
    10:00 +10°C° 0 mm 5 mps 740 mmHg 52%
    11:00 +12°C° 0 mm 5 mps 740 mmHg 49%
    12:00 +13°C° 0 mm 4 mps 740 mmHg 45%
    13:00 +13°C° 0 mm 4 mps 741 mmHg 41%
    14:00 +14°C° 0 mm 3 mps 741 mmHg 40%
    15:00 +14°C° 0 mm 3 mps 741 mmHg 39%
    16:00 +16°C° 0 mm 2 mps 741 mmHg 37%
    17:00 +15°C° 0 mm 2 mps 740 mmHg 42%
    18:00 +14°C° 0 mm 2 mps 740 mmHg 46%
    19:00 +14°C° 0 mm 1 mps 740 mmHg 51%
    20:00 +12°C° 0 mm 1 mps 741 mmHg 56%
    21:00 +11°C° 0 mm 1 mps 741 mmHg 62%
    22:00 +10°C° 0 mm 1 mps 741 mmHg 67%
    23:00 +9°C° 0.1 mm 1 mps 741 mmHg 71%

    Tomorrow, 27 May, Monday

    Time Temperature Precipitation Wind Pressure Humidity
    00:00 +9°C° 0.1 mm 1 mps 741 mmHg 74%
    01:00 +8°C° 0.1 mm 1 mps 741 mmHg 77%
    02:00 +8°C° 0.1 mm 1 mps 740 mmHg 80%
    03:00 +7°C° 0.1 mm 1 mps 740 mmHg 82%
    04:00 +7°C° 0.1 mm 1 mps 740 mmHg 84%
    05:00 +7°C° 0.2 mm 1 mps 740 mmHg 83%
    06:00 +8°C° 0.2 mm 1 mps 740 mmHg 82%
    07:00 +8°C° 0.2 mm 1 mps 740 mmHg 81%
    08:00 +9°C° 0.2 mm 1 mps 740 mmHg 79%
    09:00 +9°C° 0.2 mm 1 mps 740 mmHg 78%
    10:00 +10°C° 0.2 mm 1 mps 740 mmHg 76%
    11:00 +12°C° 0.1 mm 1 mps 740 mmHg 70%
    12:00 +14°C° 0.1 mm 1 mps 740 mmHg 63%
    13:00 +14°C° 0.1 mm 0 mps 740 mmHg 56%
    14:00 +15°C° 0.1 mm 0 mps 740 mmHg 53%
    15:00 +15°C° 0.1 mm 0 mps 739 mmHg 51%
    16:00 +16°C° 0.1 mm 0 mps 739 mmHg 48%
    17:00 +15°C° 0.3 mm 0 mps 739 mmHg 54%
    18:00 +15°C° 0.3 mm 1 mps 739 mmHg 59%
    19:00 +14°C° 0.3 mm 1 mps 739 mmHg 65%
    20:00 +12°C° 0.1 mm 1 mps 740 mmHg 72%
    21:00 +10°C° 0.1 mm 1 mps 740 mmHg 78%
    22:00 +8°C° 0.1 mm 1 mps 740 mmHg 84%
    23:00 +6°C° 0 mm 0 mps 741 mmHg 87%

    Day after tomorrow, 28 May, Tuesday

    Time Temperature Precipitation Wind Pressure Humidity
    00:00 +6°C° 0 mm 0 mps 741 mmHg 89%
    01:00 +5°C° 0 mm 0 mps 741 mmHg 92%
    02:00 +5°C° 0 mm 0 mps 741 mmHg 92%
    03:00 +5°C° 0 mm 0 mps 741 mmHg 93%
    04:00 +6°C° 0 mm 1 mps 741 mmHg 93%
    05:00 +7°C° 0 mm 1 mps 741 mmHg 88%
    06:00 +9°C° 0 mm 1 mps 741 mmHg 83%
    07:00 +10°C° 0 mm 1 mps 741 mmHg 77%
    08:00 +12°C° 0 mm 1 mps 741 mmHg 71%
    09:00 +13°C° 0 mm 1 mps 741 mmHg 65%
    10:00 +14°C° 0 mm 1 mps 741 mmHg 59%
    11:00 +15°C° 0.6 mm 1 mps 741 mmHg 59%
    12:00 +15°C° 0.6 mm 1 mps 741 mmHg 60%
    13:00 +16°C° 0.6 mm 1 mps 741 mmHg 60%
    14:00 +16°C° 0.7 mm 2 mps 741 mmHg 60%
    15:00 +15°C° 0.7 mm 2 mps 741 mmHg 61%
    16:00 +14°C° 0.7 mm 3 mps 741 mmHg 62%
    17:00 +14°C° 0.3 mm 3 mps 741 mmHg 62%
    18:00 +13°C° 0.3 mm 3 mps 741 mmHg 62%
    19:00 +12°C° 0.3 mm 3 mps 741 mmHg 62%
    20:00 +10°C° 0 mm 2 mps 742 mmHg 65%
    21:00 +9°C° 0 mm 2 mps 742 mmHg 68%
    22:00 +8°C° 0 mm 1 mps 742 mmHg 71%
    23:00 +6°C° 0 mm 2 mps 743 mmHg 75%

    29 May, Wednesday

    Time Temperature Precipitation Wind Pressure Humidity
    00:00 +6°C° 0 mm 2 mps 743 mmHg 78%
    01:00 +5°C° 0 mm 2 mps 743 mmHg 82%
    02:00 +4°C° 0 mm 3 mps 743 mmHg 80%
    03:00 +4°C° 0 mm 3 mps 744 mmHg 77%
    04:00 +4°C° 0 mm 3 mps 744 mmHg 75%
    05:00 +5°C° 0 mm 3 mps 745 mmHg 70%
    06:00 +5°C° 0 mm 3 mps 745 mmHg 64%
    07:00 +7°C° 0 mm 3 mps 745 mmHg 58%
    08:00 +8°C° 0 mm 3 mps 746 mmHg 51%
    09:00 +10°C° 0 mm 3 mps 746 mmHg 43%
    10:00 +12°C° 0 mm 2 mps 746 mmHg 36%
    11:00 +12°C° 0 mm 3 mps 746 mmHg 36%
    12:00 +12°C° 0 mm 4 mps 746 mmHg 37%
    13:00 +13°C° 0 mm 5 mps 746 mmHg 37%
    14:00 +13°C° 0.1 mm 5 mps 746 mmHg 36%
    15:00 +13°C° 0.1 mm 5 mps 746 mmHg 34%
    16:00 +13°C° 0.1 mm 6 mps 746 mmHg 33%
    17:00 +12°C° 0 mm 5 mps 746 mmHg 34%
    18:00 +11°C° 0 mm 4 mps 746 mmHg 35%
    19:00 +11°C° 0 mm 4 mps 747 mmHg 35%
    20:00 +8°C° 0 mm 4 mps 747 mmHg 40%
    21:00 +7°C° 0 mm 3 mps 748 mmHg 44%
    22:00 +5°C° 0 mm 3 mps 748 mmHg 49%
    23:00 +4°C° 0 mm 3 mps 748 mmHg 53%

    30 May, Thursday

    Time Temperature Precipitation Wind Pressure Humidity
    00:00 +3°C° 0 mm 3 mps 748 mmHg 58%
    01:00 +3°C° 0 mm 3 mps 749 mmHg 62%
    02:00 +2°C° 0 mm 3 mps 749 mmHg 65%
    03:00 +3°C° 0 mm 2 mps 749 mmHg 68%
    04:00 +2°C° 0 mm 2 mps 749 mmHg 71%
    05:00 +3°C° 0 mm 3 mps 749 mmHg 63%
    06:00 +5°C° 0 mm 3 mps 749 mmHg 55%
    07:00 +6°C° 0 mm 4 mps 749 mmHg 47%
    08:00 +8°C° 0 mm 4 mps 749 mmHg 43%
    09:00 +10°C° 0 mm 4 mps 748 mmHg 38%
    10:00 +10°C° 0 mm 5 mps 748 mmHg 34%
    11:00 +10°C° 0.1 mm 5 mps 748 mmHg 35%
    12:00 +12°C° 0.1 mm 5 mps 748 mmHg 36%
    13:00 +12°C° 0.1 mm 5 mps 748 mmHg 36%
    14:00 +12°C° 0.1 mm 5 mps 748 mmHg 35%
    15:00 +12°C° 0.1 mm 4 mps 749 mmHg 34%
    16:00 +13°C° 0.1 mm 4 mps 749 mmHg 32%
    17:00 +12°C° 0 mm 4 mps 749 mmHg 33%
    18:00 +12°C° 0 mm 4 mps 749 mmHg 33%
    19:00 +11°C° 0 mm 3 mps 750 mmHg 34%
    20:00 +9°C° 0 mm 3 mps 750 mmHg 40%
    21:00 +7°C° 0 mm 3 mps 751 mmHg 46%
    22:00 +5°C° 0 mm 2 mps 751 mmHg 53%
    23:00 +4°C° 0 mm 2 mps 752 mmHg 56%

    31 May, Friday

    Time Temperature Precipitation Wind Pressure Humidity
    00:00 +3°C° 0 mm 2 mps 752 mmHg 59%
    01:00 +3°C° 0 mm 1 mps 753 mmHg 63%
    02:00 +3°C° 0 mm 1 mps 753 mmHg 64%
    03:00 +3°C° 0 mm 1 mps 753 mmHg 66%
    04:00 +3°C° 0 mm 1 mps 754 mmHg 67%
    05:00 +5°C° 0 mm 1 mps 754 mmHg 60%
    06:00 +7°C° 0 mm 1 mps 754 mmHg 52%
    07:00 +9°C° 0 mm 1 mps 754 mmHg 45%
    08:00 +11°C° 0 mm 1 mps 754 mmHg 40%
    09:00 +12°C° 0 mm 2 mps 754 mmHg 36%
    10:00 +14°C° 0 mm 2 mps 754 mmHg 31%
    11:00 +14°C° 0 mm 2 mps 754 mmHg 31%
    12:00 +14°C° 0 mm 3 mps 753 mmHg 30%
    13:00 +14°C° 0 mm 3 mps 753 mmHg 29%
    14:00 +14°C° 0 mm 4 mps 753 mmHg 30%
    15:00 +14°C° 0 mm 4 mps 753 mmHg 31%
    16:00 +15°C° 0 mm 4 mps 753 mmHg 31%
    17:00 +14°C° 0 mm 4 mps 753 mmHg 35%
    18:00 +13°C° 0 mm 3 mps 753 mmHg 39%
    19:00 +12°C° 0 mm 3 mps 753 mmHg 43%
    20:00 +11°C° 0 mm 3 mps 753 mmHg 50%
    21:00 +9°C° 0 mm 2 mps 753 mmHg 56%
    22:00 +8°C° 0 mm 2 mps 753 mmHg 62%
    23:00 +6°C° 0 mm 2 mps 753 mmHg 70%
    Show more